APRIZESAT 8

Last updated on Sat Sep 12 2026 00:03:40 GMT+0000 (Coordinated Universal Time)

1 39425U 13066K 26254.56847882 .00000802 00000+0 92412-4 0 9997 2 39425 97.8289 200.8641 0045907 3.6358 356.5183 14.87788058692519
UTC large
Height (km)
Speed (km/s)
/
Latitude / Longitude
Inclination (degrees)
Orbital Period (minutes)
Azimuth
Elevation
Range (km)
Doppler Factor

Next 0 passes for location: London (51.5072 / 0.1276)

No passes found over London.
APRIZESAT 8